PROFILE

 METAR AND TAF INFORMATION
ADDS - METARS form results

(1206 UTC 16 October 2019)
http://aviationweather.gov/metar/data/
 
LFMT 161200Z AUTO 08007KT CAVOK 20/11 Q1017 NOSIG
LFMT 161130Z AUTO 08008KT CAVOK 19/09 Q1017 NOSIG
TAF LFMT 160800Z 1609/1709 VRB05KT CAVOK BECMG 1622/1624 BKN020 BECMG 1703/1705 04010KT 9999 BKN015 

 AIRPORT MAP

 RUNWAY INFORMATION
Runway 12L Runway length 8530 ft Runway width 164 ft
Runway elevation 17 ft Runway displaced threshold 0 ft Runway heading 124
Runway 30R Runway length 8530 ft Runway width 164 ft
Runway elevation 6 ft Runway displaced threshold 0 ft Runway heading 304
Runway 12R Runway length 3609 ft Runway width 98 ft
Runway elevation 10 ft Runway displaced threshold 328 ft Runway heading 124
Runway 30L Runway length 3609 ft Runway width 98 ft
Runway elevation 7 ft Runway displaced threshold 0 ft Runway heading 304

 AIRPORT FREQUENCIES
Type APP Name MONTPELLIE Frequency 120.375 MHZ
Type ATIS Name MONTPELLIE Frequency 124.125 MHZ
Type GND Name MONTPELLIE Frequency 121.95 MHZ
Type TWR Name MONTPELLIE Frequency 118.2 MHZ
Type TWR Name MONTPELLIE Frequency 118.775 MHZ

 AIRPORT NEAR NAVIGATION AIDS
Type VOR-DME Name Mediterranee Frequency 114450 KHZ